This demonstration page uses our WeatherBlox Daily Observations layout. Learn more.

Left ArrowRight Arrow

Hourly Observations for February 21, 2016

Temp ( °F °C ) Dew Point ( °F °C ) Humidity (%) Winds ( mph kmh ) Pressure ( in mb ) Visibility ( mi km ) Precip ( " mm )
12:51 am 00:51 Clear 51 10.6 26 -3.3 38 38 N N/A 29.94 1014 10 16.0934 N/A
1:51 am 01:51 Clear 49 9.4 26 -3.3 41 41 NE 3 6 29.93 1014 10 16.0934 N/A
2:51 am 02:51 Clear 47 8.3 26 -3.3 44 44 N N/A 29.93 1013 10 16.0934 N/A
3:51 am 03:51 Clear 44 6.7 25 -3.9 47 47 N N/A 29.93 1014 10 16.0934 N/A
4:51 am 04:51 Clear 44 6.7 26 -3.3 49 49 E 5 7 29.93 1014 10 16.0934 N/A
5:51 am 05:51 Clear 44 6.7 26 -3.3 49 49 N N/A 29.93 1014 10 16.0934 N/A
6:51 am 06:51 Clear 42 5.6 26 -3.3 53 53 N N/A 29.97 1015 10 16.0934 N/A
7:51 am 07:51 Sunny 48 8.9 27 -2.8 44 44 N N/A 29.98 1015 10 16.0934 N/A
8:51 am 08:51 Sunny 56 13.3 29 -1.7 36 36 N N/A 29.98 1015 10 16.0934 N/A
9:51 am 09:51 Sunny 63 17.2 28 -2.2 27 27 WNW 3 6 29.99 1016 10 16.0934 N/A
10:51 am 10:51 Sunny 66 18.9 28 -2.2 24 24 VRB 7 11 29.99 1016 10 16.0934 N/A
11:51 am 11:51 Sunny 70 21.1 28 -2.2 21 21 VRB 3 6 29.94 1014 10 16.0934 N/A
12:51 pm 12:51 Sunny 74 23.3 28 -2.2 18 18 WNW 7 11 29.92 1013 10 16.0934 N/A
1:51 pm 13:51 Sunny 78 25.6 27 -2.8 15 15 WNW 12 19 29.88 1012 10 16.0934 N/A
2:51 pm 14:51 Sunny 81 27.2 27 -2.8 14 14 WNW 15 24 29.84 1011 10 16.0934 N/A
3:51 pm 15:51 Sunny 81 27.2 27 -2.8 14 14 WNW 17 28 29.83 1010 10 16.0934 N/A
4:51 pm 16:51 Sunny 80 26.7 25 -3.9 13 13 WNW 15 24 29.83 1010 10 16.0934 N/A
5:51 pm 17:51 Sunny 77 25 24 -4.4 14 14 NW 14 22 29.83 1010 10 16.0934 N/A
6:51 pm 18:51 Clear 71 21.7 21 -6.1 15 15 WNW 15 24 29.87 1012 10 16.0934 N/A
7:51 pm 19:51 Clear 69 20.6 23 -5 17 17 NW 15 24 29.88 1012 10 16.0934 N/A
8:51 pm 20:51 Clear 65 18.3 22 -5.6 19 19 NNW 12 19 29.88 1012 10 16.0934 N/A
9:51 pm 21:51 Clear 63 17.2 22 -5.6 21 21 NNW 10 17 29.89 1012 10 16.0934 N/A
10:51 pm 22:51 Clear 61 16.1 23 -5 23 23 NNW 10 17 29.88 1012 10 16.0934 N/A
11:51 pm 23:51 Clear 57 13.9 23 -5 27 27 NNW 7 11 29.88 1012 10 16.0934 N/A

Powered by AerisWeather